Regional Weather Roundup
Issued by NWS

Home | Current Version | Previous Version | Text Only | Print | Product List | Glossary Off
Versions: 1 2 3 4 5 6 7 8 9 10 11 12 13 14 15 16 17 18 19 20 21 22 23 24 25 26 27 28 29 30 31 32 33 34 35 36 37 38 39 40 41 42 43 44 45 46 47 48 49

000
ASUS45 KPSR 222310
RWRAZ

ARIZONA REGIONAL HOURLY WEATHER ROUNDUP
NATIONAL WEATHER SERVICE TUCSON AZ
400 PM MST THU JUN 22 2017

NOTE: FAIR INDICATES FEW OR NO CLOUDS BELOW 12,000 FEET WITH NO
SIGNIFICANT WEATHER AND/OR OBSTRUCTIONS TO VISIBILITY.

AZZ001>003-036-230000-
NORTHWEST ARIZONA

CITY           SKY/WX    TMP DP  RH WIND       PRES   REMARKS
BULLHEAD CITY  SUNNY    117  30   5 S20G29    29.58F HX 107
KINGMAN        SUNNY    106  34   8 W16G26    29.87F
$$

AZZ004>008-015-016-018-230000-
NORTH CENTRAL ARIZONA

CITY           SKY/WX    TMP DP  RH WIND       PRES   REMARKS
GRAND CANYON   SUNNY     93  16   6 W13G22    30.11F
PRESCOTT       SUNNY     98  26   7 W18G28    30.01F
FLAGSTAFF      MOSUNNY   87  24  10 W13G25    30.16S
PAYSON         CLEAR     99  39  12 SW18G28   30.03F
PAGE           SUNNY    106  16   4 W15G32    29.84F
$$

AZZ009>014-017-230000-
NORTHEAST ARIZONA

CITY           SKY/WX    TMP DP  RH WIND       PRES   REMARKS
WINSLOW        MOSUNNY  105  28   7 W21G44    29.92F
SAINT JOHNS    MOSUNNY  100  21   6 NW18G26   29.97F
WINDOW ROCK    SUNNY     95  23   7 W10G29    30.07F
SHOW LOW       MOSUNNY   90  27  10 SW9G23    30.09F
$$

AZZ023-230000-
GREATER PHOENIX AREA

CITY           SKY/WX    TMP DP  RH WIND       PRES   REMARKS
PHOENIX        MOSUNNY  112  46  11 W15G22    29.65F HX 107
BUCKEYE          N/A    111  43  10 W8        29.67F HX 106
GLENDALE       MOSUNNY  113  45  10 S15G23    29.67F HX 108
LUKE AFB       SUNNY    112  43   9 W16       29.65F HX 106
DEER VALLEY    SUNNY    110  47  12 SW18      29.68F HX 106
SCOTTSDALE     SUNNY    110  46  11 W13G21    29.70F HX 105
MESA-FALCON    SUNNY    109  50  14 W12G17    29.69  HX 106
MESA-GATEWAY   SUNNY    109  48  13 W9        29.69F HX 106
CHANDLER       SUNNY    111  45  10 S12       29.68F HX 106
$$

AZZ027-028-230000-
SOUTHWEST MARICOPA COUNTY AND PINAL COUNTY

CITY           SKY/WX    TMP DP  RH WIND       PRES   REMARKS
CASA GRANDE    SUNNY    110  49  13 W12G18    29.70F HX 106
$$

AZZ503-504-507>509-230000-
SOUTHEAST ARIZONA

CITY           SKY/WX    TMP DP  RH WIND       PRES   REMARKS
TUCSON         SUNNY    109  46  12 NW14G25   29.79F HX 105
DAVIS-MONTHAN  SUNNY    107  42  10 NW16      29.78F HX 102
RYAN FIELD     CLEAR    108  43  11 NW14G21   29.78F HX 102
NOGALES        SUNNY    102  50  17 W16G24    29.90F
SIERRA VISTA   MOSUNNY  101  41  12 NW18G25   29.97R
DOUGLAS        MOSUNNY  105  34   8 N12G29    29.86F
SAFFORD        SUNNY    110  36   8 W22G31    29.73F HX 103
$$

AZZ020-021-025-026-031-230000-
SOUTHWEST ARIZONA

CITY           SKY/WX    TMP DP  RH WIND       PRES   REMARKS
YUMA           SUNNY    105  62  24 S15       29.65F HX 107
$$

CAZ031-033-041-043-047-048-061-230000-
SOUTHERN CALIFORNIA

CITY           SKY/WX    TMP DP  RH WIND       PRES   REMARKS
DOWNTOWN L.A.  NOT AVBL
L.A. AIRPORT   MOSUNNY   71  61  70 SW9       29.82F
SAN DIEGO      MOSUNNY   71  61  70 SW9       29.84S
BURBANK        SUNNY     81  58  45 S13       29.80F
ONTARIO        SUNNY     90  58  33 W15G26    29.79F
RIVERSIDE      SUNNY     91  56  30 W15       29.79F
PALM SPRINGS   SUNNY    112  44  10 VRB7      29.65F HX 107
EL CENTRO NAS  SUNNY    107  60  21 E14       29.62F HX 108
IMPERIAL       MOSUNNY  108  63  23 SE14      29.61F HX 111
BLYTHE         MOSUNNY  111  57  17 S21G26    29.62F HX 111
NEEDLES        PTSUNNY  118  21   3 SW7G21    29.62F HX 107
$$

NVZ020-UTZ003-230000-
SOUTHERN NEVADA-UTAH

CITY           SKY/WX    TMP DP  RH WIND       PRES   REMARKS
LAS VEGAS      MOSUNNY  114  -7   1 W20       29.69F HX 103
SALT LAKE CITY SUNNY     87  22   9 NW14      30.00F
$$

NMZ009-TXZ055-230000-
NEW MEXICO-WEST TEXAS

CITY           SKY/WX    TMP DP  RH WIND       PRES   REMARKS
ALBUQUERQUE    MOSUNNY  101  24   6 W18       29.88F
EL PASO        MOSUNNY  108  30   6 VRB7      29.75F HX 100
$$


........................KEY........................
SKY/WX - SKY CONDITION/WEATHER
TMP    - TEMPERATURE IN FAHRENHEIT
DP     - DEWPOINT IN FAHRENHEIT
RH     - RELATIVE HUMIDITY IN PERCENT
WIND   - DIRECTION AND SPEED IN MILES PER HOUR (MPH)
VRB    - VARIABLE WIND DIRECTION
PRES   - MEAN SEA LEVEL PRESSURE IN INCHES OF MERCURY
         F - FALLING PRESSURE   R - RISING PRESSURE
         S - STEADY PRESSURE
VSB    - VISIBILITY IN MILES
HX     - HEAT INDEX IN FAHRENHEIT
WCI    - WIND CHILL INDEX IN FAHRENHEIT
TC     - TEMPERATURE IN CELSIUS WHICH IS ALSO KNOWN AS
         TEMPERATURE IN CENTIGRADE
AFB    - AIR FORCE BASE
         LUKE AFB IS LUKE AIR FORCE BASE
         DAVIS-MONTHAN IS DAVIS-MONTHAN AIR FORCE BASE
NAS    - NAVAL AIR STATION
         EL CENTRO NAS IS EL CENTRO NAVAL AIR STATION
N/A    - NOT AVAILABLE





USA.gov is the U.S. government's official web portal to all federal, state and local government web resources and services.